Location: Newark
(36.0797°N, 3.9744°E)
Time: 22:59:41
(UTC+00:00)

Vanguard 2 - Pass Details

Date: 14 December 2019
Orbit: 553 x 2938 km, 32.9° (Epoch: 21 January)

Event Time Altitude Azimuth Distance (km) Brightness Sun altitude
Exits shadow 05:00:11 25° 273° (W) 4,601 10.8 -20.8°
Maximum altitude 05:12:18 62° 204° (SSW) 3,077 10.4 -18.5°
Drops below altitude 10° 05:26:57 10° 128° (SE) 4,830 12.7 -15.6°
Sets 05:30:14 0° 125° (SE) 5,569 13.4 -15.0°
